Theta_e
319 316 316 317 318 314 315 316 315 315 315 317 315 315 315 315 316 316 317 317 318 319 320 320 320 320 320 321 321 323 325 326 328 328 327 326 323 318 314 312 314 316 317 318
318 317 313 313 316 317 314 316 314 315 314 316 314 315 313 313 314 315 315 316 317 317 318 320 320 319 319 317 319 321 322 323 326 328 328 327 327 325 321 315 312 312 315 315
314 311 313 314 316 319 319 315 313 315 316 314 315 316 314 312 314 315 317 318 318 319 320 321 321 319 318 318 318 319 321 321 322 324 328 329 329 328 327 323 319 315 313 314
315 313 313 315 315 317 317 317 314 316 316 315 314 312 310 312 313 313 316 317 318 318 318 318 318 318 316 317 319 319 319 320 322 323 328 329 329 329 327 326 324 321 318 315
314 314 314 315 315 316 314 314 316 314 315 315 314 315 312 313 313 313 314 315 317 317 316 316 316 316 316 317 318 318 318 318 319 320 322 326 329 329 329 330 329 327 325 321
311 314 314 314 314 315 313 313 315 314 315 319 314 316 312 312 313 313 314 316 316 315 314 315 315 316 316 317 317 318 318 318 318 319 321 323 325 328 329 329 329 329 328 327
313 312 312 314 314 314 314 314 315 319 320 315 311 315 314 310 310 310 309 313 314 314 315 315 315 316 316 317 317 318 319 320 319 319 320 323 324 326 327 328 328 329 329 329
315 316 312 311 314 315 317 315 311 310 313 314 311 316 314 312 313 314 313 314 314 314 315 315 316 316 315 315 315 317 319 320 320 319 320 321 324 326 327 329 329 329 329 329
315 313 310 311 312 314 316 317 312 310 305 306 310 310 312 311 310 311 313 314 314 314 315 312 312 312 313 313 313 313 313 313 315 318 322 325 326 327 327 328 328 329 329 329
311 313 309 311 312 312 314 312 316 315 313 313 312 312 312 313 311 312 312 311 310 311 311 311 311 311 311 311 311 312 313 313 313 313 313 313 317 322 325 326 327 327 328 328
310 310 308 310 312 315 314 314 312 312 314 314 310 310 307 310 309 311 309 309 310 310 310 310 310 310 309 309 309 311 312 312 312 311 311 312 313 313 312 312 316 320 323 326
311 311 312 311 310 311 313 313 314 314 309 311 310 310 309 308 307 310 309 309 310 310 310 310 310 309 309 309 309 309 310 310 310 310 310 310 310 311 312 312 311 313 323 325
311 312 311 312 310 310 313 313 312 313 309 313 315 313 307 308 308 310 309 309 310 310 309 309 309 309 309 309 309 309 309 309 309 310 310 310 310 310 310 311 311 312 311 318
310 311 312 311 311 310 313 313 312 313 314 313 312 311 310 308 309 309 308 309 309 308 308 308 308 309 308 308 309 310 310 310 310 309 309 310 310 310 310 310 311 311 312 310
310 311 310 310 308 309 311 312 312 313 313 313 311 310 309 308 307 309 310 309 310 309 308 308 308 308 308 308 308 309 308 308 308 309 309 310 309 309 309 310 311 311 311 312
310 310 310 310 309 308 310 310 311 312 313 312 311 310 308 309 310 309 308 308 307 306 306 305 303 304 304 304 304 304 304 304 304 305 306 307 309 310 309 309 309 311 312 311
310 311 311 312 310 307 310 310 310 310 311 312 313 311 306 306 306 306 307 306 306 303 301 300 300 300 299 300 300 301 301 301 302 303 305 306 307 308 309 310 309 308 309 312
309 310 310 308 311 313 310 304 309 310 310 311 312 310 308 307 305 306 306 305 301 299 297 297 297 297 298 298 299 299 299 300 300 301 302 304 306 307 308 309 309 308 307 308
304 309 311 311 311 309 307 305 308 311 311 307 311 308 305 302 302 297 298 298 297 295 295 294 295 295 296 297 297 297 298 299 299 300 301 302 303 305 306 308 309 309 308 307
305 309 310 310 311 312 305 301 295 307 312 294 296 304 303 304 306 298 295 294 294 292 292 293 293 293 294 295 295 295 296 296 297 297 298 299 300 302 303 305 308 308 308 308
310 309 310 310 310 302 292 288 293 311 305 288 288 289 302 297 293 291 291 291 291 291 291 291 292 292 292 293 293 294 295 295 295 296 296 297 297 298 300 302 305 306 308 308
310 311 310 306 307 308 284 293 301 292 285 284 282 283 286 286 287 288 288 288 289 289 290 291 291 291 291 291 292 293 293 293 294 295 295 295 296 297 298 299 301 304 306 307
305 295 297 295 293 283 282 282 282 282 281 280 279 279 282 283 283 284 285 285 285 287 288 289 290 291 290 290 290 291 291 292 292 293 293 294 294 294 295 297 299 300 304 305
291 283 291 291 284 281 280 279 278 278 277 277 277 278 280 280 280 281 282 283 284 285 287 287 288 289 289 289 289 288 289 290 291 292 292 293 293 294 294 294 295 297 299 302
278 281 285 284 282 280 277 275 276 276 275 275 276 276 277 278 279 280 281 282 283 283 283 284 285 286 287 288 288 288 288 289 290 290 291 291 291 292 293 294 293 294 296 297
274 274 280 283 276 279 276 273 273 273 272 273 274 276 276 277 278 279 279 279 279 280 281 283 283 283 285 286 287 286 287 287 287 288 289 289 290 290 290 292 293 293 293 295
Wind_Speed
14 7 20 26 17 5 7 5 7 3 4 3 7 14 16 24 20 24 29 28 32 31 26 26 23 22 21 22 22 23 28 29 32 34 37 39 40 39 38 36 36 36 34 33
6 22 14 8 10 7 5 8 5 3 4 2 7 16 13 14 23 24 24 26 29 28 29 30 26 27 27 27 29 27 28 29 32 35 37 39 39 41 39 39 38 38 38 36
20 10 18 12 13 16 17 14 5 2 0 3 5 14 15 8 21 24 23 23 20 19 20 24 29 32 33 35 32 31 30 30 33 35 37 40 41 43 43 43 43 42 40 39
14 21 14 16 17 17 20 15 5 6 3 6 6 11 8 4 9 8 23 22 19 21 23 26 30 33 35 31 28 30 32 34 32 36 42 42 43 45 42 42 44 45 44 42
14 8 12 16 18 15 9 8 14 6 7 4 7 3 5 3 7 6 15 19 21 24 25 26 25 26 31 27 28 29 28 30 35 39 39 43 45 46 44 45 44 46 47 45
23 11 15 11 10 17 7 6 4 4 5 9 21 9 20 8 6 4 12 23 25 28 29 28 25 26 27 22 24 24 27 30 30 34 39 43 42 43 46 47 47 45 47 47
20 7 2 11 8 6 6 8 4 7 9 15 9 8 21 3 3 5 12 25 26 28 29 29 27 25 24 25 28 24 23 22 25 29 34 40 44 46 48 48 49 49 50 50
15 13 15 6 9 8 20 14 5 9 6 8 5 10 14 1 13 22 26 28 28 25 21 21 15 6 5 8 8 9 12 14 15 20 27 32 39 44 48 51 53 54 53 52
15 16 8 5 6 17 11 17 11 4 2 2 5 7 8 9 8 13 13 15 17 7 9 14 11 11 12 11 11 12 13 10 8 13 20 27 32 37 41 45 48 51 53 53
3 7 5 18 11 15 12 9 9 8 8 9 4 4 9 2 7 3 4 7 10 13 11 10 9 9 9 8 9 7 8 10 8 7 7 12 21 29 34 38 43 45 47 49
2 2 3 14 16 19 7 9 5 3 7 6 3 8 7 10 8 5 7 12 14 15 14 11 9 9 9 10 11 11 11 11 11 12 13 14 16 19 22 30 37 41 43 46
19 3 5 17 17 22 22 23 23 8 10 7 2 10 2 7 6 17 14 15 14 10 7 5 6 8 9 10 10 12 15 17 17 19 20 20 19 21 23 26 28 31 37 40
17 8 5 3 2 5 18 19 17 16 2 10 8 7 3 8 6 11 17 14 10 6 4 4 5 8 10 10 10 13 15 15 16 18 20 21 22 23 25 25 25 28 31 34
28 20 12 16 11 8 15 21 20 20 13 16 14 16 4 5 8 8 14 15 12 8 3 4 9 11 15 16 18 16 18 20 21 23 23 23 25 25 26 28 29 27 27 30
20 21 23 15 7 10 19 24 24 21 25 18 23 18 14 13 10 16 17 16 14 13 8 3 1 3 7 11 12 14 17 22 25 24 27 26 29 29 27 29 31 31 29 30
20 10 17 19 12 7 11 19 24 26 25 23 19 14 12 18 22 17 19 21 16 10 4 1 2 4 8 12 14 16 19 22 24 26 26 27 31 30 31 30 33 34 33 32
17 13 9 22 21 2 9 21 23 22 29 26 18 27 7 9 9 18 21 19 17 12 7 3 2 5 9 12 15 18 21 23 24 26 26 27 28 32 31 32 34 34 36 35
11 20 11 4 11 20 13 2 20 25 22 22 19 15 10 7 13 16 17 19 14 8 3 1 5 8 11 14 17 18 20 22 25 27 27 27 29 30 32 33 35 36 34 35
9 14 9 9 12 3 4 5 14 17 15 6 20 7 10 28 22 12 12 12 9 4 1 5 8 10 13 16 18 19 21 23 24 26 27 27 30 31 32 33 34 37 39 35
15 22 15 8 12 13 5 3 11 4 12 8 6 5 11 22 9 4 8 7 4 1 5 8 10 12 15 17 19 20 22 24 26 28 27 27 29 31 32 33 34 37 37 39
14 12 16 13 6 4 5 15 12 10 3 9 11 12 11 5 6 15 9 4 1 4 8 10 12 15 17 18 20 22 23 25 26 28 30 30 28 29 32 34 34 35 37 38
7 9 5 4 4 5 18 5 0 6 13 13 15 15 19 17 11 9 5 2 4 6 9 11 15 16 18 19 21 22 24 27 28 29 31 33 33 31 31 33 35 35 37 38
3 3 3 4 4 7 14 17 13 13 13 13 12 12 12 11 9 7 7 7 9 11 12 14 16 16 18 20 22 24 25 28 30 31 30 32 34 35 33 34 36 36 36 38
4 12 4 5 6 11 16 15 16 14 14 12 12 11 11 10 9 8 9 11 13 14 16 18 19 19 20 22 23 25 28 30 30 32 33 33 35 37 37 36 35 37 38 37
5 10 6 7 10 14 15 15 13 12 12 12 11 11 11 10 11 13 14 15 16 18 19 20 22 23 23 24 24 26 29 32 34 35 35 35 36 37 40 39 38 38 36 36
11 7 4 3 7 4 10 11 14 12 13 13 12 11 12 12 13 15 15 16 18 20 21 22 23 25 25 25 26 28 31 34 37 39 39 39 40 40 39 42 46 41 40 37
Wind_Direction
184 181 209 205 202 200 162 194 196 221 244 192 237 257 258 270 267 264 265 267 262 264 271 274 275 279 276 276 277 270 264 261 254 249 247 247 248 248 249 252 251 252 253 254
180 222 207 148 193 210 198 212 214 270 265 175 293 273 265 260 264 253 261 269 268 267 262 262 267 268 268 276 271 268 266 265 260 258 256 253 253 254 255 256 256 257 254 253
203 216 190 181 190 204 222 214 178 170 319 277 22 288 267 243 255 261 258 261 261 253 252 248 254 267 273 277 272 267 270 268 267 267 259 255 253 256 257 254 254 254 254 254
222 231 189 187 204 193 221 222 144 173 121 233 148 270 216 227 239 239 241 234 238 247 253 258 263 271 278 279 277 270 268 270 269 267 259 258 257 256 261 264 262 260 259 258
212 157 181 202 209 181 223 159 201 184 220 33 243 266 272 221 240 235 247 248 252 261 267 270 271 277 284 289 282 280 274 271 267 264 265 263 260 262 265 264 266 269 268 260
216 192 183 198 177 187 130 82 86 148 175 233 236 195 270 225 203 215 250 257 262 267 272 281 283 283 290 289 282 285 282 274 268 264 264 262 265 266 266 267 268 269 272 271
212 199 221 160 154 158 170 126 163 210 209 230 186 175 242 263 331 216 262 268 268 277 280 282 284 286 284 279 280 279 274 288 274 268 266 266 265 265 266 269 271 271 271 273
187 204 202 182 200 177 196 192 182 205 198 235 149 223 234 141 233 254 261 269 275 277 287 291 298 320 42 37 12 325 299 292 284 273 272 273 270 268 269 270 272 273 273 275
199 214 190 186 170 169 188 209 200 98 123 75 211 284 300 258 246 251 273 277 272 291 101 94 77 67 68 65 44 36 32 25 326 298 281 277 278 277 277 278 278 277 278 278
222 208 192 183 162 211 179 148 191 207 209 227 244 250 230 246 246 253 268 125 94 115 99 90 81 66 51 34 16 4 0 10 6 352 322 293 282 281 280 280 279 279 279 279
153 246 206 157 205 192 168 194 208 187 196 204 231 248 202 223 216 176 164 103 112 107 100 92 67 36 13 353 338 335 327 326 322 321 319 314 310 304 293 282 279 279 280 279
203 185 198 209 204 205 202 205 199 200 221 223 205 245 219 231 199 158 137 128 123 115 103 71 33 24 16 11 2 344 325 322 323 315 313 311 307 303 303 306 299 282 276 278
189 201 181 165 28 173 213 213 213 219 62 194 209 244 188 136 136 153 149 152 148 152 136 98 69 32 22 14 13 11 6 360 348 341 327 326 317 309 303 301 304 307 290 274
189 216 228 225 226 147 196 211 209 208 220 221 220 245 142 153 149 164 168 168 153 147 93 46 23 8 345 354 352 354 344 345 351 355 359 350 339 328 316 306 301 301 301 294
203 216 214 227 253 189 195 207 212 209 218 215 229 223 223 190 195 192 190 183 176 182 178 179 143 331 333 331 336 343 337 336 335 336 337 345 347 338 328 318 306 298 294 292
203 240 210 232 236 210 216 212 216 216 222 226 239 237 225 207 190 204 193 184 172 162 150 116 351 349 337 337 341 340 336 336 336 335 334 329 325 329 334 330 318 306 298 292
200 212 197 227 222 197 238 217 214 217 223 214 218 230 125 196 197 182 181 170 159 155 159 161 8 353 341 334 333 332 332 331 333 333 337 336 328 323 326 327 329 318 304 296
197 207 206 244 165 224 243 208 219 219 225 213 229 244 173 150 117 130 156 150 147 153 145 14 353 347 338 333 331 333 329 328 327 329 335 334 331 331 329 327 325 327 315 303
257 219 218 220 224 325 325 250 193 185 225 222 221 205 137 129 120 79 126 139 142 139 38 355 354 345 337 331 331 331 330 329 327 328 331 332 333 332 333 329 326 326 325 318
195 221 199 181 226 223 180 73 357 147 219 12 313 179 150 150 173 152 162 154 146 43 350 347 349 346 334 333 336 339 335 332 329 331 334 332 330 328 330 331 329 328 326 325
199 189 204 205 190 284 40 313 307 170 178 45 34 25 154 118 71 142 158 153 48 349 340 341 341 341 337 337 336 336 333 332 334 333 334 335 334 331 329 326 331 329 329 323
185 179 176 144 155 215 357 326 43 63 73 62 47 42 76 101 110 121 110 63 360 344 338 335 335 336 336 337 335 334 331 329 329 330 330 329 330 332 333 331 330 330 331 328
136 3 106 18 103 74 47 71 46 60 80 62 59 50 77 86 72 51 35 11 355 347 343 337 333 334 335 338 337 333 330 327 326 326 326 325 326 328 331 331 330 330 329 331
58 16 85 156 81 83 62 65 58 55 59 57 59 50 55 58 44 28 13 358 351 347 340 337 335 334 334 335 337 333 327 324 323 322 324 326 325 326 327 328 328 328 330 328
347 326 26 88 121 112 75 49 48 42 39 45 50 49 37 32 22 8 358 350 346 339 336 337 335 333 332 331 331 327 322 320 320 320 322 323 323 323 322 322 324 325 324 325
1 10 5 57 30 12 85 58 42 33 25 23 32 32 21 11 8 355 349 343 336 334 335 332 331 328 328 327 325 323 319 318 318 317 318 320 320 320 319 318 317 318 320 321